• In Uzbekistan
  • List of Countries
  • For 7 days
  • Water Temperature
  • Satellite Maps
  • Weather Map
  • Weather Widgets
  • user-avatar
    Login

    Hourly Weather Megri

    Today, 30 April, Sunday

    Time Temperature Precipitation Wind Pressure Humidity
    00:00 +8°C° 0 mm 2 mps 622 mmHg 78%
    01:00 +9°C° 0 mm 1 mps 622 mmHg 79%
    02:00 +8°C° 0 mm 1 mps 622 mmHg 80%
    03:00 +8°C° 0 mm 1 mps 621 mmHg 81%
    04:00 +8°C° 0 mm 1 mps 621 mmHg 78%
    05:00 +9°C° 0 mm 1 mps 622 mmHg 76%
    06:00 +10°C° 0 mm 1 mps 622 mmHg 73%
    07:00 +12°C° 0 mm 1 mps 623 mmHg 62%
    08:00 +14°C° 0 mm 1 mps 624 mmHg 50%
    09:00 +16°C° 0 mm 2 mps 625 mmHg 36%
    10:00 +17°C° 0 mm 3 mps 625 mmHg 33%
    11:00 +18°C° 0 mm 4 mps 625 mmHg 30%
    12:00 +19°C° 0 mm 4 mps 625 mmHg 27%
    13:00 +20°C° 0 mm 4 mps 625 mmHg 26%
    14:00 +20°C° 0 mm 4 mps 625 mmHg 24%
    15:00 +20°C° 0 mm 5 mps 625 mmHg 25%
    16:00 +19°C° 0.1 mm 4 mps 625 mmHg 29%
    17:00 +18°C° 0.1 mm 3 mps 624 mmHg 34%
    18:00 +17°C° 0.1 mm 2 mps 624 mmHg 38%
    19:00 +15°C° 0.1 mm 2 mps 623 mmHg 43%
    20:00 +14°C° 0.1 mm 1 mps 623 mmHg 49%
    21:00 +12°C° 0.1 mm 1 mps 623 mmHg 54%
    22:00 +11°C° 0 mm 1 mps 622 mmHg 56%
    23:00 +11°C° 0 mm 1 mps 622 mmHg 58%

    Tomorrow, 1 May, Monday

    Time Temperature Precipitation Wind Pressure Humidity
    00:00 +10°C° 0 mm 1 mps 622 mmHg 60%
    01:00 +10°C° 0 mm 1 mps 622 mmHg 59%
    02:00 +9°C° 0 mm 1 mps 622 mmHg 59%
    03:00 +9°C° 0 mm 1 mps 622 mmHg 59%
    04:00 +10°C° 0 mm 1 mps 622 mmHg 57%
    05:00 +10°C° 0 mm 1 mps 622 mmHg 56%
    06:00 +11°C° 0 mm 1 mps 623 mmHg 54%
    07:00 +13°C° 0 mm 1 mps 624 mmHg 46%
    08:00 +15°C° 0 mm 1 mps 624 mmHg 38%
    09:00 +19°C° 0 mm 1 mps 625 mmHg 30%
    10:00 +19°C° 0 mm 2 mps 625 mmHg 27%
    11:00 +20°C° 0 mm 2 mps 626 mmHg 25%
    12:00 +21°C° 0 mm 2 mps 626 mmHg 22%
    13:00 +21°C° 0 mm 3 mps 625 mmHg 22%
    14:00 +22°C° 0 mm 3 mps 625 mmHg 22%
    15:00 +22°C° 0 mm 3 mps 625 mmHg 22%
    16:00 +21°C° 0 mm 2 mps 625 mmHg 28%
    17:00 +20°C° 0 mm 2 mps 624 mmHg 34%
    18:00 +19°C° 0 mm 1 mps 624 mmHg 40%
    19:00 +18°C° 0 mm 1 mps 624 mmHg 44%
    20:00 +16°C° 0 mm 2 mps 624 mmHg 48%
    21:00 +15°C° 0 mm 2 mps 624 mmHg 52%
    22:00 +14°C° 0.3 mm 2 mps 624 mmHg 55%
    23:00 +14°C° 0.3 mm 2 mps 624 mmHg 58%

    Day after tomorrow, 2 May, Tuesday

    Time Temperature Precipitation Wind Pressure Humidity
    00:00 +14°C° 0.3 mm 2 mps 624 mmHg 62%
    01:00 +13°C° 0.1 mm 2 mps 623 mmHg 64%
    02:00 +12°C° 0.1 mm 2 mps 623 mmHg 67%
    03:00 +10°C° 0.1 mm 2 mps 622 mmHg 70%
    04:00 +12°C° 0 mm 2 mps 622 mmHg 69%
    05:00 +12°C° 0 mm 2 mps 623 mmHg 67%
    06:00 +12°C° 0 mm 2 mps 623 mmHg 65%
    07:00 +14°C° 0 mm 2 mps 624 mmHg 56%
    08:00 +16°C° 0 mm 2 mps 624 mmHg 47%
    09:00 +18°C° 0 mm 2 mps 625 mmHg 37%
    10:00 +19°C° 0 mm 2 mps 625 mmHg 35%
    11:00 +20°C° 0 mm 2 mps 625 mmHg 33%
    12:00 +21°C° 0 mm 3 mps 625 mmHg 30%
    13:00 +20°C° 0.6 mm 3 mps 625 mmHg 36%
    14:00 +19°C° 0.6 mm 3 mps 624 mmHg 41%
    15:00 +17°C° 0.6 mm 3 mps 623 mmHg 47%
    16:00 +17°C° 0.3 mm 2 mps 623 mmHg 50%
    17:00 +17°C° 0.3 mm 2 mps 623 mmHg 53%
    18:00 +16°C° 0.3 mm 2 mps 622 mmHg 57%
    19:00 +15°C° 0.5 mm 2 mps 622 mmHg 63%
    20:00 +14°C° 0.5 mm 2 mps 622 mmHg 69%
    21:00 +13°C° 0.5 mm 2 mps 622 mmHg 75%
    22:00 +13°C° 1 mm 2 mps 622 mmHg 77%
    23:00 +13°C° 1 mm 2 mps 621 mmHg 79%

    3 May, Wednesday

    Time Temperature Precipitation Wind Pressure Humidity
    00:00 +12°C° 1 mm 2 mps 621 mmHg 82%
    01:00 +12°C° 0.2 mm 1 mps 621 mmHg 83%
    02:00 +11°C° 0.2 mm 1 mps 620 mmHg 84%
    03:00 +11°C° 0.2 mm 1 mps 620 mmHg 86%
    04:00 +11°C° 0.1 mm 1 mps 620 mmHg 85%
    05:00 +11°C° 0.1 mm 1 mps 620 mmHg 84%
    06:00 +11°C° 0.1 mm 1 mps 620 mmHg 83%
    07:00 +13°C° 0.2 mm 2 mps 621 mmHg 72%
    08:00 +15°C° 0.2 mm 2 mps 622 mmHg 62%
    09:00 +17°C° 0.2 mm 3 mps 622 mmHg 51%
    10:00 +18°C° 0.3 mm 3 mps 622 mmHg 45%
    11:00 +19°C° 0.3 mm 4 mps 622 mmHg 39%
    12:00 +20°C° 0.3 mm 5 mps 622 mmHg 33%
    13:00 +20°C° 0.1 mm 5 mps 622 mmHg 32%
    14:00 +20°C° 0.1 mm 5 mps 622 mmHg 30%
    15:00 +21°C° 0.1 mm 6 mps 622 mmHg 28%
    16:00 +20°C° 0.1 mm 5 mps 622 mmHg 31%
    17:00 +19°C° 0.1 mm 5 mps 622 mmHg 33%
    18:00 +18°C° 0.1 mm 4 mps 622 mmHg 36%
    19:00 +16°C° 0.2 mm 3 mps 621 mmHg 42%
    20:00 +14°C° 0.2 mm 2 mps 621 mmHg 49%
    21:00 +12°C° 0.2 mm 1 mps 621 mmHg 55%
    22:00 +12°C° 0 mm 1 mps 621 mmHg 56%
    23:00 +12°C° 0 mm 1 mps 621 mmHg 57%

    4 May, Thursday

    Time Temperature Precipitation Wind Pressure Humidity
    00:00 +11°C° 0 mm 1 mps 620 mmHg 57%
    01:00 +11°C° 0 mm 1 mps 620 mmHg 57%
    02:00 +11°C° 0 mm 1 mps 620 mmHg 57%
    03:00 +11°C° 0 mm 1 mps 620 mmHg 57%
    04:00 +11°C° 0 mm 1 mps 620 mmHg 58%
    05:00 +12°C° 0 mm 1 mps 620 mmHg 58%
    06:00 +12°C° 0 mm 1 mps 621 mmHg 59%
    07:00 +13°C° 0 mm 1 mps 621 mmHg 54%
    08:00 +15°C° 0 mm 1 mps 621 mmHg 49%
    09:00 +16°C° 0 mm 1 mps 622 mmHg 44%
    10:00 +17°C° 0.2 mm 2 mps 622 mmHg 42%
    11:00 +18°C° 0.2 mm 2 mps 622 mmHg 40%
    12:00 +19°C° 0.2 mm 2 mps 622 mmHg 38%
    13:00 +19°C° 0.5 mm 3 mps 622 mmHg 36%
    14:00 +19°C° 0.5 mm 3 mps 622 mmHg 35%
    15:00 +19°C° 0.5 mm 3 mps 621 mmHg 34%
    16:00 +19°C° 0.3 mm 2 mps 621 mmHg 37%
    17:00 +18°C° 0.3 mm 2 mps 621 mmHg 40%
    18:00 +18°C° 0.3 mm 1 mps 621 mmHg 44%
    19:00 +16°C° 0.1 mm 1 mps 621 mmHg 50%
    20:00 +14°C° 0.1 mm 1 mps 621 mmHg 56%
    21:00 +12°C° 0.1 mm 1 mps 621 mmHg 62%
    22:00 +12°C° 0 mm 1 mps 621 mmHg 64%
    23:00 +11°C° 0 mm 1 mps 620 mmHg 66%

    5 May, Friday

    Time Temperature Precipitation Wind Pressure Humidity
    00:00 +11°C° 0 mm 1 mps 620 mmHg 68%
    01:00 +10°C° 0 mm 1 mps 620 mmHg 69%
    02:00 +10°C° 0 mm 1 mps 620 mmHg 70%
    03:00 +9°C° 0 mm 0 mps 620 mmHg 71%
    04:00 +10°C° 0 mm 1 mps 621 mmHg 70%
    05:00 +11°C° 0 mm 1 mps 621 mmHg 69%
    06:00 +11°C° 0 mm 1 mps 622 mmHg 67%
    07:00 +13°C° 0 mm 1 mps 622 mmHg 60%
    08:00 +15°C° 0 mm 1 mps 623 mmHg 52%
    09:00 +16°C° 0 mm 2 mps 624 mmHg 45%
    10:00 +17°C° 0 mm 2 mps 623 mmHg 42%
    11:00 +18°C° 0 mm 2 mps 623 mmHg 39%
    12:00 +19°C° 0 mm 3 mps 623 mmHg 36%
    13:00 +20°C° 0.1 mm 3 mps 623 mmHg 35%
    14:00 +20°C° 0.1 mm 3 mps 623 mmHg 33%
    15:00 +20°C° 0.1 mm 2 mps 622 mmHg 31%
    16:00 +19°C° 0.1 mm 2 mps 622 mmHg 35%
    17:00 +19°C° 0.1 mm 2 mps 622 mmHg 39%
    18:00 +18°C° 0.1 mm 2 mps 622 mmHg 43%
    19:00 +16°C° 0.5 mm 1 mps 622 mmHg 50%
    20:00 +15°C° 0.5 mm 1 mps 622 mmHg 57%
    21:00 +13°C° 0.5 mm 1 mps 622 mmHg 64%
    22:00 +13°C° 0.1 mm 1 mps 622 mmHg 65%
    23:00 +13°C° 0.1 mm 1 mps 621 mmHg 66%
    Show more